Location: Appleton
(44.2618°N, 88.4157°W)
Time: 19:05:10
(UTC+00:00)

S-56A Canister/Altair - Visible Passes

Search period start: 04 March 2021 00:00
Search period end: 14 March 2021 00:00
Orbit: 631 x 2501 km, 38.9° (Epoch: 03 March)

Date Brightness Start Highest point End Pass type
(mag) Time Alt. Az. Time Alt. Az. Time Alt. Az.
04 Mar 10.7 01:57:48 10° W 02:09:27 32° SW 02:17:26 14° S visible
05 Mar 10.7 01:23:52 10° W 01:36:24 36° SW 01:46:20 10° SSE visible
06 Mar 10.7 00:50:01 10° W 01:03:16 41° SW 01:13:57 10° SSE visible
06 Mar 11.3 03:01:08 10° W 03:06:14 13° WSW 03:10:51 10° SSW visible
07 Mar 10.8 00:16:15 10° W 00:30:01 45° SSW 00:41:27 10° SSE visible
07 Mar 11.2 02:25:57 10° W 02:33:24 17° SW 02:39:56 10° SSW visible
08 Mar 11.2 01:51:22 10° W 02:00:30 20° SW 02:08:26 10° S visible
09 Mar 11.2 01:17:04 10° W 01:27:31 24° SW 01:36:35 10° S visible
10 Mar 11.3 00:42:59 10° W 00:54:26 28° SW 01:04:29 10° S visible
11 Mar 11.3 00:09:05 10° W 00:21:16 31° SW 00:32:12 10° SSE visible
13 Mar 11.8 01:13:00 10° WSW 01:18:20 13° SW 01:23:25 10° SSW visible
